Other Public Products
Issued by NWS Grand Forks, ND

Home | Current Version | Previous Version | Text Only | Print | Product List | Glossary Off
Versions: 1 2 3 4 5 6 7 8 9 10 11 12 13 14 15 16 17 18 19 20 21 22 23 24 25 26 27 28 29 30 31 32 33 34 35 36 37 38 39 40 41 42 43 44 45 46 47 48 49 50

000
FPUS83 KFGF 290410
OPUFGF
PRAIRIE TO PINES WEATHER ROUNDUP
NATIONAL WEATHER SERVICE EASTERN NORTH DAKOTA/GRAND FORKS ND
1100 PM CDT FRI AUG 28 2015

 **SATELLITE DATA USED TO AUGMENT SKY COVER AT AUTOMATED STATIONS**
 *****  WEATHER ACROSS EASTERN NORTH DAKOTA  *****

CITY           SKY/WX    TMP DP  RH WIND       PRES   REMARKS
GRAND FORKS    PTCLDY    69  67  93 S9        29.86S
GRAND FORKS AF CLEAR     70  68  93 SW7       29.87S
GRAND CITY NWS   N/A     70 N/A N/A SW6         N/A
BUXTON         NOT AVBL
DEVILS LAKE    CLEAR     66  59  77 SW3       29.88F
FARGO          CLEAR     72  64  76 S17       29.92S
WAHPETON ARPT  CLEAR     64  61  88 S9        29.97S
$$

 *****  WEATHER ACROSS CENTRAL AND WESTERN NORTH DAKOTA  *****

CITY           SKY/WX    TMP DP  RH WIND       PRES   REMARKS
JAMESTOWN      CLEAR     70  66  87 S12       29.91S
BISMARCK       CLEAR     70  66  87 SE3       29.91S
MINOT          PTCLDY    68  61  78 SE6       29.88S
MINOT AFB      MOCLDY    67  64  93 CALM      29.87S
GARRISON         N/A     67  30  25 N3        29.91R
WILLISTON      MOCLDY    68  47  46 S3        29.92R HAZE
DICKINSON      MOCLDY    65  50  58 W7        29.97R
HETTINGER      CLOUDY    62  53  72 CALM      30.01R HAZE
$$

 *****  OTHER OBSERVATIONS NORTHEAST NORTH DAKOTA  *****

CITY           SKY/WX    TMP DP  RH WIND       PRES   REMARKS
WALHALLA       FAIR      64  64 100 MISG      29.88R
LANGDON        FAIR      63  63 100 E3        29.91S
CAVALIER       FAIR      66  64  94 CALM      29.86S
GRAFTON        FAIR      70  70 100 W5        29.86S
CANDO          NOT AVBL
FORT TOTTEN      N/A     67  62  83 CALM      29.95
ROLLA          CLOUDY    59  59 100 NW3       29.93S
RUGBY          FAIR      66  64  94 E3        29.90R
 ***** THE ABOVE OBSERVATIONS ARE NON NWS ARE NOT QUALITY
        CONTROLLED AND MAY MIS-REPORT RAIN FOR SNOW...
$$

 *****  OTHER OBSERVATIONS SOUTHEAST NORTH DAKOTA *****

CITY           SKY/WX    TMP DP  RH WIND       PRES   REMARKS
COOPERSTOWN    NOT AVBL
VALLEY CITY    CLOUDY    70  70 100 SW14      29.92S
OAKES            N/A     68  59  73 S10       29.95S
GWINNER          N/A     68  68 100 S7        29.96S
SHEYENNE NWR     N/A     67  65  94 S5        29.95S
BUFFALO        NOT AVBL
WYNDMERE         N/A     68  63  83 S9          N/A
 ***** THE ABOVE OBSERVATIONS ARE NON NWS ARE NOT QUALITY
       CONTROLLED AND MAY MIS-REPORT RAIN FOR SNOW...
$$

  *****  WEATHER ACROSS NORTHERN MINNESOTA  *****

CITY           SKY/WX    TMP DP  RH WIND       PRES   REMARKS
FLAG ISLAND    PTCLDY    68  66  94 CALM      29.86S
WARROAD        CLEAR     70  66  88 SW6       29.88R
ROSEAU         CLEAR     70  64  83 SW5       29.88R
HALLOCK        CLEAR     70  66  88 CALM      29.85S
THF RVR FALLS  CLEAR    N/A N/A N/A S12       29.89R
HALSTAD        NOT AVBL
FOSSTON        CLEAR     64  63  94 S12       29.93S
BAUDETTE       CLOUDY    70  65  84 SW5       29.89R
WASKISH        MOCLDY    70  64  83 S5        29.92R
CROOKSTON      CLEAR     72  66  83 S12       29.89S
$$
  *****  WEATHER ACROSS CENTRAL AND WEST MINNESOTA  *****

CITY           SKY/WX    TMP DP  RH WIND       PRES   REMARKS
BEMIDJI        PTCLDY    69  64  84 SW8       29.94R
PARK RAPIDS    PTCLDY    67  62  84 S9        29.98R
WADENA         CLEAR     64  61  88 S6        29.99S
DETROIT LAKES  CLEAR     68  63  83 S13       29.97S
MOORHEAD       CLEAR     70  64  83 S14G21    29.94S
FERGUS FALLS   CLEAR     66  64  94 S10       29.98S
ELBOW LAKE     FAIR      62  61  96 S7        30.00S
MORRIS MN      CLEAR     63  61  94 S8        30.00S
STAPLES        CLEAR     63  61  94 S9        30.00S
WHEATON        CLEAR     63  61  94 S9        30.00S
$$
  *****  WEATHER ELSEWHERE ACROSS MINNESOTA  *****

CITY           SKY/WX    TMP DP  RH WIND       PRES   REMARKS
DULUTH         PTCLDY    66  60  81 SW15G21   29.99F
INTRNTL FALLS  CLOUDY    71  65  81 SW8       29.88S
ELY            CLOUDY    70  61  73 SW7       29.96R
CLOQUET        CLEAR     66  57  72 S9        30.01R
BRAINERD       CLEAR     64  61  90 S9        30.01S
HIBBING        PTCLDY    68  62  81 VRB3      29.97R
ALEXANDRIA     CLEAR     64  61  90 S10       30.03S
SAINT CLOUD    CLEAR     60  57  89 S6        30.03S
MINNEAPOLIS    PTCLDY    61  55  81 SE5       30.04F
$$

  *****  WEATHER ACROSS SOUTH DAKOTA  *****

CITY           SKY/WX    TMP DP  RH WIND       PRES   REMARKS
SIOUX FALLS    PTCLDY    59  56  89 NE3       30.03R
BROOKINGS      CLEAR     61  55  82 S3        30.05S
WATERTOWN      CLEAR     63  60  90 S9        30.01S
HURON          CLEAR     68  63  84 S8        30.00S
SISSETON         N/A     64  62  93 S6        29.98R
ABERDEEN       CLEAR     69  64  84 S13       29.97S
MITCHELL       CLEAR     65  63  93 S6        30.03R
PIERRE         CLEAR     70  65  84 S8        29.98S
MOBRIDGE       PTCLDY    70  68  93 SE9       29.93F
RAPID CITY     CLEAR     63  58  83 CALM      30.07S
$$

  *****  SOME WEATHER IN NEARBY STATES *****

CITY           SKY/WX    TMP DP  RH WIND       PRES   REMARKS
GLASGOW MT     CLOUDY    68  41  37 E12       29.91S HAZE
GREAT FALLS MT CLOUDY    77  40  26 W16       29.99R HAZE
CHEYENNE WY    CLEAR     62  45  53 W7        30.31R
SCOTTSBLUFF NE CLEAR     64  55  72 E3        30.16R
OMAHA NE       CLOUDY    64  62  93 N12       29.95R
DES MOINES IA  MOCLDY    71  67  87 SE9       29.90R
DAVENPORT IA   RAIN      66  64  93 E3        30.01F FOG
CHICAGO IL     CLOUDY    70  63  78 E6        30.07S
EAU CLAIRE WI  FAIR      56  54  93 NE6       30.06F
LA CROSSE WI   CLOUDY    60  57  89 SE6       30.03F
$$

  *****  SOME NATIONAL WEATHER *****

CITY           SKY/WX    TMP DP  RH WIND       PRES   REMARKS
LA GUARDIA NY  PTCLDY    74  56  53 NE3       30.19S
RALEIGH NC     MOCLDY    72  60  66 SE6       30.20S
ATLANTA GA     MOCLDY    75  67  76 E5        30.17S
NEW ORLEANS LA PTCLDY    80  65  59 E3        30.02R
OKLAHOMA CITY  PTCLDY    73  67  81 S6        29.97R
ALBUQUERQUE NM MOCLDY    76  49  38 E18G30    30.21R
SALT LAKE CITY PTCLDY    80  39  23 S8        30.05R
LOS ANGELES CA PTCLDY    77  63  61 W8        29.84R
BOISE ID       CLOUDY    80  44  27 SE3       29.89R
SEATTLE WA     LGT RAIN  70  57  63 N6        29.80F
$$

*** WEATHER ACROSS MANITOBA...SASKATCHEWAN AND ONTARIO ***
                ***ONTARIO***

CITY           SKY/WX    TMP DP  RH WIND       PRES   REMARKS
GERALDTON      CLOUDY    59  57  94 S6        29.91R FOG
THUNDER BAY    TSTM      63  61  94 NW8       29.94R
SIOUX LOOKOUT  MOCLDY    63  63 100 SE5       29.87R
TORONTO        MOCLDY    64  59  82 S3        30.15S
BIG TROUT LK   MOCLDY    59  55  88 S5        29.83S
PICKLE LAKE    NOT AVBL
DRYDEN         CLEAR     64  63  94 SW8       29.87R
KENORA         PTCLDY    66  64  94 CALM      29.88S
$$
                *** MANITOBA***

CITY           SKY/WX    TMP DP  RH WIND       PRES   REMARKS
BRANDON        PTCLDY    64  61  88 E5        29.90R
DAUPHIN        CLEAR     59  54  82 SW3       29.86S
ISLAND LAKE    PTCLDY    63  59  88 SE5       29.79S
PILOT MOUND      N/A     66  64  94 E5          N/A
THE PAS        PTCLDY    68  55  64 SW3       29.76S
THOMPSON       PTCLDY    66  54  63 SW7       29.68S
WINNIPEG       CLEAR     68  63  83 VRB2      29.87R
LYNN LAKE      PTCLDY    61  45  55 MISG      29.68R
CHURCHILL      TSTM      57  52  82 SW10      29.62R
$$
                ***SASKATCHEWAN***

CITY           SKY/WX    TMP DP  RH WIND       PRES   REMARKS
ESTEVAN        CLOUDY    63  55  77 SW5       29.89R SMOKE
KINDERSLEY     CLOUDY    70  50  49 SE9       29.77F
LLOYDMINSTER   MOCLDY    64  55  72 S9        29.70F
PRINCE ALBERT  CLOUDY    68  57  68 S8        29.75F
REGINA         PTCLDY    63  55  77 S6        29.85S
YORKTON        CLEAR     66  59  77 S7        29.86S



USA.gov is the U.S. government's official web portal to all federal, state and local government web resources and services.